weather.gov     
National Weather Service

Terminal Aerodrome Forecast
NWS Homepage
This page is being discontinued on March 12, 2014.
The same data is available at this site. Please update your bookmarks.
Thank you, and we apologize for the inconvenience.
Please send an email to SR-SRH.Webmaster@noaa.gov with any concerns.


Current Version
Previous Version:    01  02  03  04  05  06  07  08  09  10  11  12  13  14  15  16  17  18  19  20  21  22  23  24  25  26  27  28  29  30  
   31  32  33  34  35  36  37  38  39  40  41  
[Printable]
925
FTUS41 KILN 202300
TAFDAY
TAF
KDAY 202340Z 2100/2124 22007KT P6SM -TSRA BKN035CB
     FM210030 26007KT P6SM -SHRA BKN035
     FM210300 28007KT P6SM BKN035
     FM210600 31007KT P6SM SCT015 BKN060
     FM211000 31009KT P6SM BKN015
     FM211500 32011G19KT P6SM OVC025
     FM212200 34010KT P6SM OVC025=


U.S. Dept. of Commerce
NOAA National Weather Service
1325 East West Highway
Silver Spring, MD 20910
E-mail: w-nws.webmaster@noaa.gov
Page last modified: May 16, 2007
NATIONAL WEATHER SERVICE: for Safety, for Work, for Fun - FOR LIFE